sat.trackr.live / text

‹ back to catalog

NUSAT-51 (YVONNE BRILL)

NORAD 66740 · 2025-276CC

PAYLOAD ACTIVE UNKNOWN

§ Identity

Operator
Country
ARGN
Launch date
2025-11-28
Launch site
AFWTR
Launch vehicle
Mass (kg)
RCS (m²)

External: N2YO · Heavens-Above · Gunter

§ Orbital elements

Epoch: 2026-09-20T10:27:13.030272Z

Period
94.66 min
Inclination
97.4136°
Eccentricity
0.0003877
Mean motion
15.21206157 rev/d
Perigee alt
499.5 km
Apogee alt
504.9 km
Semi-major
6,880.3 km
B*
1.7837e-4
RAAN
335.6204°
Arg perigee
45.0538°
Mean anomaly
315.1011°
Rev number
4,490

§ Raw data

NUSAT-51 (YVONNE BRILL)1 66740U 25276CC  26263.43556748  .00003910  00000+0  17837-3 0  99972 66740  97.4136 335.6204 0003877  45.0538 315.1011 15.21206157 44907

JSON: /api/v1/satellites/66740 · /tle

For live sub-satellite position, see the globe view (requires WebGL).

§ Visibility from observer

Set your observer location to see the next 7 days of passes ≥ 10°. The values pass through the URL so the page stays shareable.

No JS? Fill the form by hand. The geolocation button needs JavaScript.